Wind_Gust
17 17 18 17 18 18 17 17 18 17 17 16 17 17 16 16 17 17 17 17 18 18 19 20 20 20 21 21 21 21 18 22 21 18 17 38 17 22 27 15 9 18 14 7 9 10 11 12 14 14 16 12 15 16 15 16 16 10 17 15 14 16 20 21 23 18 13 8 14 18 15 13 8 4 8 5 12 23 24 22 24 29 26 27 28 30 26 20
18 18 18 17 18 18 18 18 18 18 17 17 17 17 17 17 17 17 17 17 18 18 18 18 20 20 20 19 20 21 20 19 23 21 34 29 12 19 17 17 11 17 13 10 13 13 12 14 15 14 17 16 9 15 9 20 15 16 12 14 18 15 29 17 24 15 12 7 6 4 7 10 10 6 7 7 7 20 23 22 25 27 25 24 24 24 23 20
18 18 18 18 18 18 19 18 19 19 18 18 18 17 17 16 17 17 17 17 17 18 18 19 19 20 20 20 19 17 20 22 20 24 30 29 34 20 16 11 14 16 16 12 13 14 16 13 14 17 16 15 12 16 14 22 16 14 12 15 19 19 21 20 21 24 20 12 13 11 7 5 6 5 9 6 9 13 23 21 19 26 24 24 21 19 18 18
18 18 18 18 18 18 19 19 19 19 19 19 19 18 17 17 17 17 17 17 17 17 17 18 19 19 20 20 17 19 18 21 16 14 10 8 22 29 18 14 14 16 10 13 13 17 14 15 16 18 17 16 12 18 17 17 18 11 19 21 18 16 20 24 27 27 14 11 8 9 5 5 5 6 5 13 6 9 18 17 23 23 25 21 20 19 17 18
19 18 18 18 18 18 18 19 19 19 19 18 18 19 18 17 17 17 17 17 17 17 17 17 18 19 20 18 17 17 18 11 9 6 11 7 14 21 20 16 15 13 13 12 14 16 17 17 18 18 17 16 15 11 17 15 20 16 16 16 21 21 24 27 19 16 25 11 13 13 6 7 11 13 12 9 9 8 19 18 22 22 23 25 21 18 17 18
19 19 19 18 18 18 19 19 19 19 19 19 18 18 19 18 17 17 17 16 17 17 16 17 17 18 19 18 18 16 8 6 12 8 4 9 15 17 18 15 13 11 9 12 15 14 17 17 17 17 17 13 11 17 11 18 12 24 17 10 18 22 25 23 24 19 12 14 10 6 6 9 12 6 7 9 6 9 25 26 24 23 21 20 19 18 16 16
19 19 19 19 18 18 18 18 19 19 19 19 19 18 19 18 18 17 17 17 16 17 17 16 16 18 17 18 19 10 12 29 17 9 9 10 14 16 13 10 10 6 9 13 15 17 15 18 16 14 15 15 15 22 18 14 18 20 21 10 18 17 22 19 23 15 9 9 7 8 11 15 4 4 6 7 9 19 32 24 25 23 21 20 20 16 18 15
19 19 19 19 19 19 19 19 19 19 19 19 19 19 18 19 18 18 18 18 17 17 17 16 15 16 15 18 14 11 15 23 20 8 10 10 13 14 14 10 9 8 12 15 15 18 16 17 16 15 17 14 10 19 13 19 16 21 28 14 16 17 18 16 15 15 4 11 7 5 9 15 8 6 9 8 12 35 32 29 27 26 23 17 16 16 14 15
19 19 19 19 20 20 20 20 19 19 20 20 20 19 19 18 19 18 18 17 17 16 16 16 15 13 12 11 10 16 20 26 22 13 14 12 13 12 14 14 10 13 13 14 15 17 15 14 17 14 12 16 15 16 14 15 19 17 15 13 16 20 17 19 19 17 22 10 12 8 8 10 8 6 11 14 11 20 32 29 30 29 25 20 17 15 15 16
20 20 19 19 19 20 20 20 20 20 20 20 20 20 19 19 18 18 17 17 16 16 16 16 15 12 13 10 11 11 18 14 19 18 18 14 12 11 12 11 15 12 15 14 14 17 19 17 12 10 16 20 14 16 12 16 19 13 13 18 19 17 19 19 23 20 8 5 5 6 5 9 8 7 10 6 13 24 27 27 28 26 23 19 18 17 14 16
21 21 21 20 20 20 21 20 20 20 21 20 20 20 20 19 18 18 17 17 16 16 15 15 13 11 12 10 11 20 19 18 15 16 20 16 14 13 15 12 16 17 14 14 17 17 17 19 13 12 16 19 9 16 16 18 12 16 20 15 16 23 25 20 17 16 7 10 4 8 10 6 9 11 11 9 13 19 23 29 28 25 23 22 20 19 15 15
21 22 21 21 21 20 21 21 21 21 21 21 21 21 20 19 19 18 18 17 17 15 14 12 11 12 12 13 14 31 13 16 10 13 18 18 16 16 13 13 16 16 16 17 17 17 17 18 13 16 16 8 23 13 20 16 18 17 16 22 19 17 20 6 17 20 12 15 9 11 13 10 11 12 12 19 11 11 23 28 28 24 23 20 22 16 15 15
22 22 22 21 22 22 22 22 22 22 22 21 23 23 22 21 20 20 19 19 15 14 12 11 10 12 10 12 27 35 28 27 28 24 11 16 14 13 14 14 16 16 17 18 18 18 16 13 9 15 15 19 14 18 11 11 13 11 16 17 13 11 19 14 13 18 13 11 10 12 17 12 15 12 11 17 17 14 12 27 24 24 22 20 18 15 15 11
23 22 21 22 23 23 23 23 22 22 22 23 24 24 22 21 21 21 19 17 16 15 13 11 11 11 9 20 26 20 19 20 26 27 20 18 15 17 15 15 17 19 16 18 17 15 12 9 10 14 15 15 14 10 20 17 13 17 12 12 13 9 19 7 16 10 20 13 14 11 14 11 14 12 12 12 17 21 10 20 23 25 22 20 17 15 14 11
23 22 22 22 23 24 23 23 23 24 24 24 25 25 23 23 21 20 18 15 15 15 13 6 12 9 8 27 19 29 33 27 24 26 25 18 14 15 16 14 16 17 17 13 16 10 9 8 9 16 17 6 14 19 18 17 14 11 15 13 9 14 13 14 15 17 23 16 12 9 13 11 10 16 19 19 16 18 17 14 23 24 23 20 17 16 15 12
23 23 23 23 23 24 23 24 24 25 26 27 27 27 28 25 21 17 16 15 12 11 10 12 14 15 14 30 23 13 12 18 21 22 11 12 15 17 13 14 10 10 10 14 11 10 10 11 15 9 11 10 16 11 10 14 12 14 13 5 10 10 14 17 19 19 23 21 16 19 13 10 12 17 17 20 17 21 14 22 21 23 24 22 17 16 12 15
24 23 23 24 23 23 25 25 25 26 26 26 29 29 27 25 19 13 10 10 12 12 13 12 8 18 10 12 23 18 20 21 12 15 13 14 14 17 14 14 15 13 11 11 9 8 12 14 6 9 9 13 9 13 11 10 13 17 12 19 12 14 10 21 14 21 19 22 17 25 24 8 8 20 21 11 21 23 13 20 23 23 23 18 18 16 15 17
24 24 24 24 24 24 25 25 26 26 28 26 26 28 33 24 11 6 11 9 12 14 17 17 15 12 35 27 19 18 14 16 20 18 15 14 17 15 16 20 10 11 9 13 11 15 12 14 8 7 7 12 12 11 15 17 19 17 11 13 16 17 20 19 22 16 20 27 23 18 23 16 12 15 9 16 9 18 19 20 20 25 21 22 19 18 15 17
24 24 25 25 25 24 26 25 27 26 27 27 26 27 25 9 9 11 11 11 10 6 9 15 15 15 13 8 20 21 21 19 19 16 18 16 18 18 17 12 8 12 13 10 11 14 12 11 6 8 13 11 15 17 15 17 19 21 15 12 10 15 18 24 29 21 20 29 32 17 27 24 19 12 14 18 18 33 23 16 17 24 21 19 17 14 16 29
25 25 25 26 26 25 26 25 25 26 26 23 25 24 9 7 6 7 9 14 17 17 17 13 28 19 20 26 25 19 9 14 18 16 11 17 17 16 19 14 10 12 12 14 10 18 9 13 12 14 14 12 11 15 19 20 18 21 23 20 22 17 18 21 25 20 22 25 28 18 14 21 18 16 19 15 21 12 28 20 18 21 20 20 16 17 33 33
26 25 26 27 26 26 26 27 24 22 22 20 19 15 14 11 16 10 9 19 27 23 22 23 25 28 32 25 27 23 14 14 9 12 16 19 15 13 20 12 14 11 12 12 15 12 13 11 15 12 13 15 15 13 17 17 16 15 15 15 23 19 21 22 28 20 24 20 16 13 9 20 19 17 18 9 10 11 8 10 15 17 22 17 21 34 35 32
27 27 27 27 27 26 29 27 26 22 15 14 12 14 16 24 18 22 26 33 16 20 26 28 25 29 27 28 28 25 24 24 18 13 11 22 19 19 13 17 15 16 10 13 13 11 14 18 13 14 15 15 17 15 12 15 15 14 12 9 16 20 24 28 25 14 21 20 12 17 13 11 11 12 17 8 12 16 15 17 18 18 15 24 35 35 34 30
26 27 28 27 27 29 28 30 24 22 24 11 13 15 21 24 18 18 18 24 35 23 26 27 29 30 33 29 31 18 23 23 20 18 20 18 15 21 13 19 14 15 15 14 15 8 9 17 23 18 15 15 16 12 6 3 5 4 5 7 13 19 18 16 17 21 12 14 8 5 2 6 5 9 10 7 11 8 7 12 10 25 36 36 34 33 30 27
26 26 28 27 29 27 30 30 31 18 15 19 17 23 20 16 19 19 17 16 26 33 30 30 25 27 30 33 27 26 21 20 16 17 17 25 20 17 21 16 15 17 18 17 18 16 20 20 19 18 18 15 17 11 8 5 7 4 4 9 16 19 21 12 17 15 10 7 6 8 12 11 6 13 10 12 6 14 10 13 32 35 31 29 26 26 29 26
26 25 27 29 28 31 30 33 17 7 10 15 19 24 24 23 19 16 12 21 22 29 15 22 27 27 29 22 19 31 20 23 17 15 20 23 23 18 20 19 18 17 16 17 19 22 22 21 11 23 21 20 21 13 9 3 6 7 8 9 15 20 18 23 9 11 9 7 10 10 8 12 8 11 15 9 14 11 11 23 27 30 23 25 26 24 21 18
25 26 26 26 28 29 34 17 8 20 22 21 17 22 18 18 7 10 9 13 21 23 15 22 27 27 31 25 21 24 16 30 16 22 16 27 20 21 19 21 21 14 18 17 21 24 21 15 14 17 24 21 19 10 3 5 9 8 14 9 16 20 15 14 19 12 5 6 4 8 14 14 8 13 10 6 13 10 16 24 22 20 19 21 21 19 19 21
25 26 26 26 24 23 20 8 18 23 16 17 22 22 22 16 15 10 10 14 14 19 19 11 22 17 19 16 25 17 18 22 16 17 19 27 24 18 17 15 16 18 18 18 19 22 18 18 13 13 8 7 6 6 9 8 8 18 8 13 10 14 14 12 14 10 11 5 3 4 11 11 9 12 13 8 13 16 25 23 20 22 17 17 16 16 16 17
25 25 25 25 23 17 15 24 23 18 17 19 22 21 18 17 15 8 11 13 20 10 19 12 9 9 6 16 23 26 18 8 24 22 18 25 19 20 23 16 19 17 17 12 15 7 17 18 14 6 7 7 10 8 6 12 16 13 7 16 18 17 15 13 12 10 6 6 5 6 6 11 13 14 11 8 12 13 19 24 21 21 22 19 17 16 16 17
25 25 24 25 27 28 24 18 11 17 13 17 20 21 19 14 8 6 10 9 15 29 17 16 12 8 10 10 19 13 22 17 15 18 16 22 24 14 22 22 22 13 13 15 15 11 15 12 16 13 10 10 8 8 11 12 15 13 14 14 17 12 11 13 11 10 4 11 7 6 6 12 7 8 6 5 7 12 15 18 19 18 19 20 17 13 15 14
26 25 25 24 25 18 7 13 20 25 20 20 20 18 12 11 6 7 10 15 10 17 16 10 14 15 13 17 17 16 22 17 20 20 24 28 19 15 18 10 21 20 20 16 19 17 13 8 16 20 18 14 9 12 13 13 17 6 13 17 14 12 7 6 8 6 5 9 11 7 8 7 10 10 9 8 12 13 16 18 16 15 14 12 11 13 15 15
28 25 24 19 19 13 17 16 23 23 21 17 12 11 8 6 9 9 11 20 19 27 12 14 18 15 20 18 17 20 20 20 21 14 23 22 20 18 13 17 16 13 12 10 16 19 20 12 11 9 5 12 11 16 15 17 13 14 15 11 6 12 7 6 10 10 13 11 5 7 11 11 10 11 9 7 8 20 23 21 20 17 15 13 10 10 11 9
27 26 23 23 22 17 13 14 9 21 18 17 10 10 5 8 11 16 15 10 19 13 22 17 16 22 22 19 18 22 25 21 22 21 21 23 13 21 20 13 15 15 13 9 13 11 19 15 7 11 5 11 9 13 12 12 6 18 7 4 6 8 6 13 7 12 14 12 8 12 10 6 4 7 11 10 13 12 14 22 22 20 19 17 15 14 12 11
29 26 30 26 19 18 26 30 19 20 18 16 9 7 8 9 16 13 22 14 17 13 18 14 14 19 15 18 21 20 19 19 17 19 18 23 15 17 16 22 10 17 10 8 10 7 11 11 12 13 10 16 12 11 9 10 8 4 13 14 10 9 9 10 7 9 8 8 6 11 12 14 10 3 9 17 15 19 21 21 23 20 18 16 17 16 13 13
32 31 26 14 16 23 18 13 18 17 10 6 5 6 8 12 16 9 20 23 28 30 21 26 21 8 13 20 16 16 19 18 17 21 18 17 21 12 19 22 22 13 16 5 18 10 7 14 20 11 13 11 16 17 9 7 11 13 8 10 15 12 16 13 7 10 8 8 10 6 9 13 10 11 5 18 20 21 17 20 19 19 17 15 16 18 17 15
36 34 18 15 16 22 21 20 16 15 10 7 6 11 13 21 11 15 18 19 29 28 28 18 27 13 12 16 14 22 17 19 23 15 21 19 15 15 13 19 22 20 13 12 11 15 13 16 12 21 9 16 18 12 14 12 9 11 14 6 9 9 10 13 16 6 5 5 10 10 9 7 9 6 6 14 20 19 18 17 18 16 14 15 15 16 15 14
26 14 10 10 11 11 19 20 14 12 4 5 10 14 20 17 15 16 20 15 24 25 23 24 21 19 7 12 17 20 17 15 10 21 15 20 16 20 15 17 27 23 15 23 8 13 9 16 6 20 21 11 17 14 20 8 10 15 9 8 16 16 15 9 6 7 8 8 9 8 9 14 10 4 8 12 18 16 16 14 14 13 13 13 14 14 14 16
15 17 11 14 22 16 16 18 16 9 5 9 11 17 16 24 22 24 22 23 23 25 25 23 19 17 10 14 13 16 18 19 13 11 9 12 16 16 19 16 14 21 24 11 11 9 7 11 9 9 13 18 10 15 13 15 13 8 11 9 9 11 12 12 9 6 5 10 14 8 10 7 10 13 11 12 13 10 12 11 9 9 9 12 12 12 14 15
17 15 16 19 11 19 17 19 12 8 7 9 15 11 15 26 19 25 22 30 29 22 29 19 22 17 12 14 14 16 12 16 14 21 13 13 19 4 6 10 15 15 13 20 20 11 6 16 8 6 9 7 12 12 17 16 11 15 16 7 13 8 8 13 12 6 5 8 8 7 14 13 8 10 20 13 15 11 10 8 9 9 8 9 10 10 9 10
11 10 12 11 10 8 7 8 4 8 10 14 14 17 21 31 25 27 26 29 27 27 26 20 22 13 17 11 14 13 16 20 15 13 15 15 14 9 13 8 12 15 17 17 12 11 12 14 11 6 9 9 20 15 10 10 13 16 8 7 11 15 9 6 12 9 14 6 4 8 12 12 10 15 10 17 15 16 13 8 8 8 7 8 8 10 11 11
9 11 8 7 3 8 5 2 5 8 14 17 14 23 15 22 23 23 27 24 29 21 19 20 16 18 15 18 20 15 12 18 12 11 6 13 7 6 10 7 8 10 17 14 7 11 10 8 15 10 12 12 14 15 8 9 5 8 6 6 7 9 11 14 7 10 8 9 9 11 7 6 11 21 12 18 19 16 17 13 9 7 7 5 4 5 7 10
9 11 11 4 6 11 9 6 9 15 17 16 18 23 21 27 21 22 22 23 27 19 29 25 26 16 12 21 21 19 24 22 9 11 11 7 10 13 7 10 6 10 14 21 15 11 9 9 10 7 9 6 9 11 16 17 14 12 7 8 11 12 7 8 11 9 15 10 9 6 10 5 12 15 12 15 12 14 12 13 8 7 7 6 4 6 8 13
9 10 9 8 9 6 5 7 12 9 16 16 18 21 25 17 28 23 25 22 21 27 18 25 13 16 15 19 18 19 28 23 14 13 9 9 6 11 8 5 5 9 15 12 12 8 11 8 6 6 10 7 7 12 13 18 19 17 23 22 21 8 11 12 12 12 12 8 8 7 15 6 12 14 18 15 12 8 11 11 10 10 9 9 7 9 10 10
8 11 13 11 10 7 4 9 10 12 12 16 18 23 24 32 25 28 31 19 23 15 15 13 15 12 11 19 16 17 24 21 12 9 11 7 15 13 7 7 4 9 14 12 16 8 8 8 8 10 4 9 10 12 11 18 18 15 17 18 23 21 9 9 8 15 12 8 12 7 9 7 5 9 12 17 13 12 15 9 8 7 9 10 14 9 9 9
14 15 8 8 6 7 10 7 9 11 14 17 17 21 19 28 26 27 26 24 19 17 17 17 16 13 18 21 22 22 14 12 13 21 8 7 5 7 9 8 4 11 11 13 16 11 15 8 5 6 7 10 14 14 14 11 18 10 13 16 18 30 14 7 7 7 13 9 15 13 10 6 14 5 9 13 14 17 16 20 24 26 23 23 26 24 22 19
14 12 9 14 7 12 11 5 8 11 16 15 16 16 22 19 16 22 22 21 14 11 18 15 12 14 25 22 28 18 16 16 16 9 12 7 17 12 8 6 11 11 7 11 12 12 14 8 7 7 7 5 7 9 10 5 6 8 13 21 26 25 18 10 5 3 8 4 11 9 10 4 5 9 11 13 13 17 18 18 20 18 21 24 23 24 27 27
9 7 10 7 11 7 8 4 7 9 10 10 8 14 21 23 25 22 23 19 9 11 14 19 11 13 19 18 17 16 20 19 14 9 6 5 6 6 7 8 7 12 12 9 11 11 9 10 12 12 8 6 3 7 2 10 7 12 11 21 21 23 26 14 6 9 5 6 11 3 16 12 9 5 11 14 11 12 15 17 17 16 15 18 18 20 21 23
10 9 9 9 6 12 11 11 10 8 4 6 7 17 14 16 22 24 24 16 12 14 16 11 14 11 10 13 10 13 14 22 20 16 21 10 7 5 9 14 13 10 15 9 12 14 8 8 7 5 5 5 11 8 6 7 11 11 13 13 19 21 17 19 17 5 4 11 8 5 15 15 7 10 9 11 11 14 15 14 14 14 12 14 15 16 14 18
5 5 6 6 9 11 9 8 14 10 9 7 6 6 13 18 18 17 22 19 16 21 19 12 17 19 12 18 15 11 11 12 19 16 16 13 10 14 14 18 18 15 9 9 14 12 15 11 11 4 5 2 6 11 8 8 8 10 12 13 18 15 19 20 13 10 5 7 15 6 10 15 12 12 15 15 15 15 16 17 15 14 15 16 18 17 16 16
10 11 10 7 6 8 7 7 9 7 9 14 9 12 14 18 18 22 15 17 17 15 19 8 17 21 22 22 23 15 19 13 13 11 12 7 10 7 10 14 10 13 16 9 14 17 12 7 5 8 7 8 11 15 9 8 4 7 10 15 18 18 15 14 14 18 21 17 15 16 15 13 13 16 17 17 17 19 20 18 20 22 20 21 22 21 20 20
13 12 9 13 4 6 5 5 10 10 11 14 9 14 19 16 13 19 16 14 10 13 14 16 19 18 14 20 16 17 13 10 10 9 11 8 6 5 3 9 12 6 9 11 7 16 12 10 6 10 16 17 19 8 9 6 5 7 9 16 14 15 17 13 11 11 13 17 13 15 18 14 11 12 17 17 18 18 23 21 20 20 21 22 21 20 20 20
10 11 10 12 11 3 7 8 8 8 8 12 11 14 12 18 16 18 14 20 19 18 18 12 14 12 15 15 13 12 13 11 11 9 13 13 8 8 5 7 8 4 11 10 11 14 16 7 6 8 7 4 15 6 13 15 14 12 8 7 12 10 11 6 11 6 8 8 13 17 15 15 14 16 18 18 19 20 20 17 18 19 20 21 21 19 20 19
12 9 11 7 7 10 5 10 8 4 10 9 12 12 17 15 15 17 12 14 19 20 21 16 13 6 8 11 12 13 14 13 12 11 12 14 13 13 7 4 3 11 8 8 7 11 11 12 10 5 2 7 8 8 14 10 10 10 13 15 4 8 14 12 7 11 6 5 9 13 13 18 13 15 20 17 16 17 18 17 18 17 20 22 23 20 19 17
Wind_Speed
13 13 13 13 13 13 13 13 13 13 13 13 13 14 13 13 13 13 13 13 14 14 15 15 15 15 16 17 17 17 15 11 13 9 10 19 11 18 16 11 3 14 12 4 4 3 4 5 7 7 6 4 4 7 7 8 5 3 5 5 7 8 10 11 11 5 4 2 3 5 6 6 4 2 3 1 11 15 13 12 12 19 13 14 15 18 17 14
13 13 13 13 14 14 14 14 14 14 13 13 13 13 13 12 12 13 13 13 13 14 14 14 15 15 16 16 16 17 12 12 14 13 19 18 10 16 15 15 9 13 11 4 6 7 5 7 7 6 6 5 4 5 4 3 4 5 3 5 9 7 13 10 10 10 6 3 2 2 4 4 2 3 1 3 5 14 14 10 16 16 15 15 15 15 15 14
14 14 14 14 14 14 13 13 14 14 14 14 14 14 13 13 13 12 13 13 13 14 14 14 14 15 15 16 16 14 12 12 11 13 18 21 25 16 14 9 11 13 11 4 6 7 8 7 7 7 6 7 5 7 6 5 5 6 5 7 8 10 10 12 9 13 13 1 2 6 3 4 4 2 1 4 4 11 13 10 10 16 14 14 14 12 12 12
14 14 14 14 14 14 13 13 14 14 14 14 14 14 14 13 13 13 13 13 13 13 13 14 14 14 15 15 14 11 9 10 6 8 5 8 15 23 15 11 12 12 6 6 5 8 8 7 10 11 7 8 5 9 6 6 5 3 7 7 8 7 8 14 16 18 9 5 2 5 2 1 3 2 1 4 4 6 10 12 15 14 17 14 14 13 11 12
15 15 14 14 14 14 14 14 13 14 14 14 14 14 14 14 13 13 13 13 13 13 13 14 14 14 15 14 13 8 9 5 0 0 8 5 10 17 17 12 12 8 8 3 5 9 9 10 9 10 8 5 8 5 8 8 8 4 6 10 13 12 12 19 10 12 15 5 8 4 2 2 7 5 6 2 4 4 10 11 15 15 15 16 14 12 11 12
15 15 15 14 14 14 14 14 14 14 14 14 14 14 14 14 14 14 14 13 13 13 13 13 14 14 15 14 9 7 2 1 2 3 4 3 10 13 15 12 11 8 5 4 5 5 7 9 10 8 6 5 4 7 4 8 5 9 8 6 12 13 13 13 11 10 3 5 6 3 4 4 6 0 2 5 3 5 14 17 16 16 14 13 12 11 11 11
15 15 15 15 15 14 14 14 14 14 14 14 14 14 14 14 14 14 14 13 13 13 13 13 13 14 14 13 7 1 3 10 10 4 6 7 11 13 11 8 8 4 5 5 7 6 7 10 10 7 5 6 9 8 10 8 10 9 7 6 12 9 12 12 9 11 4 4 1 3 7 8 2 3 2 4 2 14 14 16 15 14 14 14 13 10 12 10
15 15 15 15 15 15 15 15 15 15 14 15 14 15 14 15 14 15 14 14 13 13 13 12 12 12 12 9 3 2 4 10 13 2 8 8 8 10 11 7 7 5 6 8 7 10 9 10 9 6 7 5 4 10 8 11 9 10 12 10 8 9 9 9 8 10 3 3 4 2 3 8 6 2 5 5 7 23 17 18 17 16 14 11 10 10 9 8
15 15 15 15 15 16 16 16 15 15 15 15 15 15 15 14 15 14 14 13 13 12 12 13 12 10 10 4 1 7 9 10 14 6 7 7 6 7 10 7 7 7 4 6 8 9 6 6 9 7 4 8 8 10 7 7 8 6 8 7 10 12 12 11 13 9 11 4 5 5 5 4 6 3 3 9 2 13 18 18 19 19 17 12 11 10 10 10
16 16 16 15 15 16 16 16 16 16 15 15 15 15 15 15 14 14 13 13 12 12 11 12 12 10 7 3 4 3 10 2 7 10 11 8 7 6 7 7 10 6 6 7 7 9 10 8 8 6 10 10 7 6 8 8 7 5 8 10 11 10 9 11 15 13 5 1 4 2 2 4 6 4 3 4 1 17 14 16 17 18 16 13 11 11 9 11
16 17 17 16 16 16 17 16 16 16 17 16 16 15 16 15 14 14 14 13 12 12 11 11 10 8 5 3 3 6 8 8 2 8 12 11 10 8 9 7 11 8 7 6 10 10 12 13 9 4 4 4 2 8 8 6 6 9 9 10 8 12 15 12 10 10 4 3 3 1 5 4 4 4 5 6 6 15 14 16 15 14 14 13 14 12 10 10
17 17 17 17 17 17 17 17 17 17 17 17 16 16 16 15 16 15 14 13 13 11 10 8 8 4 6 5 6 11 6 4 2 1 6 10 8 9 8 7 11 8 9 8 10 12 12 12 9 5 5 3 10 7 10 11 10 10 10 11 12 11 8 3 6 6 5 5 4 5 6 5 3 4 7 10 8 3 16 15 17 14 13 13 11 10 9 9
17 17 17 17 18 18 18 18 18 18 17 17 18 18 17 17 16 16 15 14 11 10 9 8 6 4 4 5 12 18 18 14 16 13 6 8 7 7 7 8 9 11 10 10 11 12 11 8 5 7 5 6 4 4 5 8 8 5 6 6 8 6 7 8 4 8 9 2 5 6 6 8 6 7 7 12 10 6 10 17 14 12 13 12 10 9 8 7
18 17 17 18 18 18 19 18 18 18 18 18 18 19 18 17 17 16 15 14 12 10 9 8 3 4 3 8 7 7 11 11 14 15 13 11 10 10 10 9 10 11 10 12 12 9 8 6 6 5 4 6 4 6 9 6 7 7 6 4 5 5 7 2 3 5 10 5 9 7 7 7 8 8 8 8 10 12 5 13 14 15 13 12 10 9 8 7
18 18 18 18 19 19 19 18 18 19 19 20 20 20 19 19 17 16 14 11 9 9 9 4 4 3 3 9 9 19 25 16 13 14 15 11 8 6 11 10 10 11 11 9 6 5 5 5 2 4 5 2 5 6 7 5 3 3 5 6 3 7 4 5 6 6 10 4 9 4 4 6 6 10 11 9 9 12 8 9 14 14 13 12 11 9 9 8
18 18 19 18 18 19 19 19 20 20 21 22 21 21 22 20 17 13 12 11 9 7 4 5 6 6 5 10 7 10 5 6 11 15 7 6 7 9 8 10 7 6 4 5 5 4 5 4 4 3 4 3 7 4 6 6 5 4 7 3 4 3 7 6 10 11 13 9 8 11 4 4 5 9 11 11 9 11 8 10 13 14 15 14 9 9 7 9
19 18 18 19 19 19 20 20 20 21 21 21 24 23 22 20 15 10 8 6 5 4 5 2 3 6 1 4 10 8 7 8 6 7 5 7 7 9 7 8 6 6 5 7 4 3 4 5 0 3 1 3 3 4 5 5 7 7 3 8 6 8 3 7 6 12 12 13 5 12 8 4 4 12 13 6 11 13 8 12 17 13 13 11 10 8 10 10
19 19 19 20 19 19 20 20 21 21 22 22 21 22 20 21 9 1 6 2 4 5 7 6 6 4 12 8 7 9 7 8 10 7 9 5 9 8 9 7 5 7 5 5 5 5 3 4 2 2 2 5 4 4 6 8 9 8 5 5 6 7 11 11 7 6 13 13 14 10 13 10 8 9 6 7 6 10 8 13 14 15 14 12 10 10 9 10
18 19 20 20 20 20 21 21 22 21 22 22 20 21 19 5 3 3 2 3 3 1 1 3 4 5 6 2 11 8 4 10 9 10 9 8 9 8 8 6 5 8 5 4 1 7 2 3 2 4 6 5 8 9 8 9 8 11 9 6 4 5 8 11 15 12 12 12 18 11 13 14 13 8 8 11 3 8 8 10 11 15 13 11 9 8 10 19
20 20 20 21 21 20 21 20 20 21 20 14 12 10 2 1 1 1 2 5 6 8 10 7 13 8 10 14 13 11 6 7 9 9 6 10 6 9 10 6 3 4 3 6 3 8 3 7 6 8 8 7 7 10 10 12 11 12 12 10 13 8 9 11 14 12 13 12 17 11 9 13 12 9 11 8 12 7 14 15 11 13 9 10 9 13 21 20
21 20 21 22 21 21 21 22 20 18 17 10 9 4 2 3 4 2 2 9 15 13 13 12 16 16 14 12 14 13 5 3 2 5 9 9 8 6 8 5 5 5 5 5 6 3 6 6 9 8 8 9 10 9 11 11 10 8 6 6 9 9 10 12 16 13 10 9 8 9 7 14 13 10 12 6 5 4 4 7 8 12 12 10 15 23 20 17
21 21 21 21 22 21 23 22 21 18 11 6 4 4 5 10 8 7 3 10 7 13 15 18 14 16 14 15 18 13 11 9 9 6 3 15 8 8 4 7 5 7 5 5 5 2 6 9 8 9 10 10 11 10 7 9 8 7 6 5 5 10 8 15 16 7 10 11 7 10 8 7 8 8 11 3 6 6 7 11 10 13 10 16 20 19 18 15
20 21 22 22 22 23 23 24 19 18 8 3 4 6 7 10 8 7 5 7 15 9 12 14 16 18 18 14 15 9 13 12 9 9 6 11 7 11 5 9 6 6 5 7 7 4 4 8 16 11 9 9 10 8 5 2 1 1 3 4 6 7 6 6 11 9 6 5 4 3 1 4 2 3 5 5 6 1 4 8 9 18 23 21 18 17 18 18
20 20 21 21 23 22 24 24 25 12 5 9 9 10 12 9 9 10 8 3 9 18 15 17 14 14 17 14 6 13 13 7 6 10 8 11 7 10 6 7 9 6 8 10 11 7 10 13 9 9 10 10 10 7 6 4 4 2 2 3 5 9 8 4 8 8 4 5 4 5 6 4 3 3 4 6 3 7 6 11 23 16 16 17 16 14 16 17
20 20 21 23 22 25 24 27 9 1 6 6 6 13 15 14 10 9 4 3 4 9 5 11 11 12 15 9 8 10 10 9 8 3 7 13 10 6 8 4 5 8 9 9 12 11 14 12 6 13 14 13 11 8 6 2 3 2 4 5 8 12 11 6 5 7 4 2 2 5 1 2 3 5 6 5 4 5 6 16 16 13 15 15 16 14 12 10
20 21 21 21 23 24 27 8 1 9 12 8 5 10 7 6 5 4 2 2 7 5 5 8 9 9 7 10 9 11 8 11 9 8 5 13 11 8 5 6 5 7 11 10 10 5 10 9 9 11 16 13 13 6 2 3 4 3 4 4 11 14 7 4 9 6 1 1 2 4 7 3 2 6 6 2 8 6 11 15 11 13 12 11 12 12 12 13
20 20 20 20 19 19 9 2 8 11 7 5 9 13 12 9 9 5 2 2 4 6 6 1 9 1 2 7 11 9 8 7 8 9 8 11 10 7 5 7 4 5 6 4 3 6 7 12 9 8 5 5 4 2 3 3 4 7 3 7 7 9 8 4 4 4 4 1 1 2 5 3 2 6 5 4 4 11 15 11 12 9 11 11 10 10 11 11
20 19 20 20 19 12 6 9 11 7 8 11 10 13 9 10 8 2 3 2 1 4 4 1 3 2 2 9 15 11 6 5 8 9 10 12 10 9 8 7 8 10 9 4 8 3 9 8 9 4 4 2 5 4 4 7 5 4 4 8 11 11 10 7 4 5 2 2 2 1 3 1 2 6 7 4 7 9 14 14 11 11 10 11 11 10 11 11
19 19 19 20 21 22 12 7 4 8 5 7 11 12 8 8 2 2 1 1 5 3 3 4 3 2 2 3 9 6 8 3 5 7 7 13 14 2 8 12 10 7 5 8 8 4 4 8 10 7 4 5 2 3 5 6 5 7 7 5 7 7 6 6 5 6 0 3 2 2 1 2 2 4 3 1 5 5 7 12 12 10 11 10 11 9 10 9
21 20 20 19 16 9 1 5 9 14 9 12 12 11 8 5 2 1 0 4 1 3 2 2 3 4 4 5 4 7 8 3 6 5 8 10 11 5 3 3 9 10 10 8 10 9 6 4 8 7 7 6 5 7 7 7 11 3 6 8 8 6 4 2 3 2 1 1 5 4 4 3 2 3 3 3 3 6 9 8 9 9 7 6 6 9 9 9
21 20 18 15 6 4 6 6 12 12 10 9 6 6 2 1 1 2 3 4 5 8 2 3 6 9 8 8 5 7 8 6 9 4 6 8 8 7 2 5 4 3 4 3 4 10 10 6 4 1 2 3 6 4 6 10 7 9 3 4 3 7 4 3 2 3 2 2 3 5 6 5 3 4 4 3 3 13 13 13 13 11 9 8 6 7 7 6
21 21 19 11 9 6 5 6 1 7 9 10 7 4 1 0 1 3 3 1 6 4 4 4 5 7 10 8 6 8 8 7 10 6 9 8 6 7 6 4 4 4 5 4 6 6 10 6 2 3 2 5 1 5 7 7 3 8 4 1 2 2 1 2 0 3 4 3 3 6 4 3 1 1 6 6 5 6 9 12 13 13 12 10 10 10 7 7
23 20 24 14 11 8 13 16 10 10 10 10 4 2 1 2 3 3 6 3 3 4 5 7 5 9 8 9 9 8 11 8 7 9 8 9 7 9 8 10 3 6 2 3 4 1 4 5 3 4 4 6 3 3 2 5 3 0 6 6 4 1 1 2 2 1 1 2 2 5 5 2 2 1 4 11 9 9 13 12 10 11 11 10 11 10 8 8
24 24 13 6 8 11 9 5 8 9 6 2 1 1 0 1 3 5 9 9 13 13 13 12 12 6 6 5 8 7 6 10 7 6 9 6 8 4 7 12 12 4 5 1 5 3 1 3 7 3 3 6 6 7 5 3 3 6 2 5 7 4 3 3 1 3 2 3 4 2 4 2 3 2 5 10 8 11 10 8 7 8 9 10 11 12 11 9
28 23 9 5 6 10 12 10 8 8 6 1 1 1 3 4 3 3 5 7 9 11 13 11 12 8 5 5 3 7 5 4 13 6 8 6 7 4 5 8 12 9 2 4 3 1 5 5 5 10 6 8 9 6 5 4 3 3 3 3 2 3 4 3 3 1 1 1 4 4 1 2 3 2 2 7 10 11 11 11 10 8 8 10 10 10 9 8
18 7 2 2 5 5 11 9 9 7 3 1 0 2 6 4 2 4 4 6 9 9 13 12 9 8 2 1 3 11 3 3 4 5 3 10 7 7 4 3 9 13 4 7 2 3 2 3 2 10 14 7 11 6 7 3 1 6 3 1 8 8 7 3 2 1 4 3 2 2 2 4 2 2 5 6 12 9 9 9 9 8 8 9 9 9 9 8
6 8 3 5 8 6 9 10 8 5 3 1 1 4 3 5 10 12 7 13 13 16 13 10 3 5 2 3 2 10 4 8 5 2 2 5 4 3 7 3 2 8 15 5 2 2 2 4 4 4 8 8 5 7 6 7 5 2 2 4 4 5 6 4 2 2 1 3 3 4 4 3 3 2 1 5 8 6 7 7 5 6 6 7 6 6 7 7
6 5 6 9 3 11 9 12 8 5 2 1 3 6 3 8 6 12 10 14 14 11 11 7 4 10 3 2 3 5 3 7 5 7 4 3 3 1 3 2 1 7 8 5 4 2 2 5 3 2 4 0 4 2 8 7 6 9 8 5 4 1 1 4 4 1 1 1 1 2 6 3 4 5 1 5 7 5 6 5 6 6 6 6 6 7 6 6
4 3 3 5 4 4 3 4 2 1 2 3 3 5 5 10 12 14 14 14 13 13 10 9 7 3 8 4 7 4 2 5 8 7 5 5 0 4 2 1 4 5 9 6 4 4 2 4 3 2 3 2 5 4 3 5 5 8 5 0 4 6 4 1 2 3 6 2 1 2 6 2 3 0 6 4 6 8 7 5 5 6 5 5 5 7 7 6
2 2 2 2 2 5 3 1 1 1 2 5 3 5 5 9 9 11 14 13 9 5 5 10 9 7 3 6 13 7 3 7 7 3 2 3 2 4 2 3 1 4 6 7 3 0 3 1 4 3 2 5 4 5 3 5 3 4 1 1 1 1 4 6 1 4 2 3 3 3 1 1 5 4 3 4 6 7 8 8 4 4 4 4 3 3 5 6
2 1 1 0 4 6 6 2 1 4 4 4 7 9 10 9 9 10 12 13 10 8 10 11 12 7 3 6 10 11 6 11 1 2 2 3 5 1 3 4 3 1 3 11 10 4 2 3 3 2 3 1 3 5 8 8 8 6 3 1 2 4 3 2 5 2 1 2 1 1 2 1 6 7 6 4 1 3 3 6 5 4 5 4 3 4 5 8
2 1 2 2 6 4 2 0 2 2 2 5 4 5 8 7 11 13 12 11 11 7 6 10 6 4 3 3 5 7 6 8 2 2 4 3 2 4 4 4 2 5 6 3 2 5 3 0 1 3 3 3 1 3 4 11 10 10 10 7 9 3 3 5 3 5 4 1 1 2 6 2 5 6 9 3 3 2 3 3 4 4 4 4 5 6 4 5
1 3 3 7 4 4 1 1 2 3 2 2 7 11 12 12 10 10 14 11 8 6 3 3 4 2 2 1 6 7 7 5 3 3 3 2 6 8 4 6 1 5 7 1 3 3 3 1 3 5 2 2 5 7 7 12 10 7 8 8 10 7 3 4 3 6 4 3 5 1 3 2 1 5 6 8 1 5 7 4 4 4 4 6 7 4 4 4
4 2 1 3 2 2 6 1 3 7 4 6 7 9 8 11 13 12 11 12 5 4 6 5 7 7 5 9 9 10 5 2 3 10 3 3 1 4 6 6 4 3 3 3 4 5 1 3 1 3 2 4 6 7 7 6 8 3 5 7 10 10 8 2 3 2 5 2 9 6 4 2 3 2 2 7 7 10 10 13 16 16 14 14 17 16 14 14
4 2 2 1 3 6 3 1 1 3 5 7 6 7 10 8 7 10 10 8 6 3 5 5 5 4 6 8 12 10 3 7 3 4 3 3 3 3 5 1 7 3 1 7 9 3 5 2 3 0 1 1 0 1 2 1 1 2 4 10 14 15 10 5 2 2 3 1 4 4 4 1 0 2 4 6 7 10 10 11 12 11 10 10 10 12 11 13
1 1 2 2 2 3 2 1 3 1 2 2 3 5 8 7 11 12 16 10 6 5 3 6 7 7 6 8 7 9 9 11 7 2 1 1 2 1 4 4 4 6 5 7 7 6 2 0 3 6 4 3 1 2 1 6 3 5 5 14 12 13 12 6 3 3 1 2 5 1 9 7 5 3 4 7 7 8 10 11 11 9 8 8 7 8 9 10
3 1 1 2 2 6 4 3 2 1 1 2 1 3 5 9 8 10 16 6 8 8 6 4 7 5 3 6 4 4 6 9 14 11 10 5 3 1 7 11 2 6 11 3 8 6 4 1 4 3 4 3 6 5 4 5 7 6 8 6 13 13 10 11 5 1 1 6 5 1 7 8 4 6 6 7 7 9 10 9 9 9 7 8 9 10 10 9
1 1 2 2 3 3 3 3 3 2 1 2 1 2 7 11 10 6 9 10 8 11 6 7 10 13 9 11 8 4 7 4 8 5 9 7 5 8 6 10 7 10 4 3 6 5 7 1 7 0 3 2 4 7 6 5 5 6 8 9 12 11 12 12 7 4 3 2 7 4 2 6 5 8 10 10 10 10 11 11 9 9 9 10 11 12 11 10
2 2 2 2 1 1 2 2 3 4 3 2 1 5 4 5 8 7 4 6 8 5 10 3 9 12 14 14 8 5 11 6 5 4 3 4 5 3 4 6 6 10 8 5 7 5 0 3 1 2 1 2 6 6 6 6 3 4 7 11 12 12 10 7 7 10 11 9 9 10 11 7 7 10 10 11 11 12 11 10 10 14 13 13 14 13 13 12
4 3 3 4 1 2 1 1 3 4 5 8 3 6 7 8 6 7 7 4 2 6 6 6 9 11 9 10 9 6 5 4 3 3 4 4 3 1 0 3 2 2 3 5 1 9 3 1 4 2 4 8 11 4 6 4 4 4 6 11 10 10 11 6 4 7 7 10 8 10 12 8 5 8 10 11 10 10 14 13 10 11 12 14 14 13 12 12
2 2 2 3 4 1 2 2 3 3 2 5 4 5 5 9 6 8 3 10 10 8 9 7 8 3 6 8 7 7 7 6 7 5 5 4 3 4 1 2 4 1 2 3 2 0 5 1 3 4 3 1 3 3 9 10 10 8 6 5 7 6 7 1 4 1 3 4 9 11 8 6 8 10 11 11 12 13 13 10 9 10 12 14 13 12 12 12
3 3 4 2 2 5 2 3 4 1 3 1 2 3 3 4 8 9 3 7 10 11 11 10 6 4 3 6 6 7 9 8 6 6 5 5 7 8 4 2 1 5 3 3 0 2 3 3 3 3 1 4 3 2 9 7 6 6 8 10 1 5 7 5 3 5 3 1 5 5 6 5 8 10 12 9 10 11 11 10 9 11 11 12 12 12 12 11
Wind_Direction
355 355 353 353 352 351 350 348 344 341 339 338 332 327 323 320 315 312 312 311 310 311 316 317 318 320 321 321 323 323 323 314 306 290 260 245 211 217 251 258 222 196 193 192 244 251 215 197 216 237 245 232 235 243 258 266 247 208 213 210 248 247 255 254 256 261 285 63 341 357 358 58 84 16 355 89 91 90 80 76 68 57 56 91 111 128 130 127
354 353 352 352 351 349 348 346 344 342 341 342 338 330 324 319 316 312 310 311 312 313 316 317 318 319 320 320 322 322 322 306 289 274 245 246 193 218 224 238 211 173 161 196 215 219 208 193 216 212 229 240 226 245 199 246 244 218 216 201 234 225 248 264 276 296 314 41 327 335 4 344 49 102 301 51 146 104 87 79 91 85 87 93 108 123 123 129
352 352 351 350 350 349 346 345 345 343 342 344 340 334 328 321 317 314 312 310 311 314 315 317 318 319 319 321 322 327 322 301 287 260 259 243 224 213 204 169 160 158 167 181 216 220 219 192 196 209 222 244 217 241 199 236 221 232 233 230 240 241 261 262 278 281 273 270 77 54 356 349 357 62 224 91 47 97 114 115 92 113 117 119 125 126 128 130
351 350 349 349 347 346 346 344 344 344 343 342 340 336 330 325 319 316 313 311 311 312 314 314 317 320 319 319 325 329 300 291 278 250 221 306 196 202 200 171 161 166 187 220 214 225 240 229 197 204 217 222 237 237 228 215 226 195 211 234 245 248 249 251 250 258 283 310 292 134 181 7 306 246 89 110 130 85 139 142 138 138 136 135 138 138 139 138
349 349 347 347 346 345 344 344 343 343 342 340 338 336 333 328 323 317 315 312 311 312 312 315 316 318 318 318 327 330 312 344 94 188 336 339 169 183 185 169 161 172 188 215 240 254 247 242 218 207 220 218 233 252 235 236 208 264 223 218 245 262 275 271 286 314 315 260 62 8 72 322 326 14 349 33 124 182 141 144 131 135 137 139 145 147 140 147
348 346 346 344 344 344 342 342 342 342 340 338 336 335 333 329 325 320 316 313 311 311 312 314 316 319 318 319 312 301 317 89 349 336 359 46 127 151 160 155 165 168 174 219 220 240 255 264 244 221 204 232 225 221 238 241 206 236 255 246 231 236 250 270 286 281 336 13 35 14 351 331 1 114 314 312 202 183 137 135 134 136 139 138 137 144 147 152
347 345 343 342 341 341 342 341 341 340 339 336 335 333 331 329 326 322 317 314 313 314 312 315 318 320 322 312 271 212 255 268 310 238 124 129 134 136 129 131 147 171 175 197 220 232 228 244 243 225 229 212 238 249 252 244 231 238 250 236 251 255 249 264 270 268 268 269 91 22 340 321 12 344 252 256 313 101 120 118 122 127 131 137 139 157 157 158
346 345 343 342 341 340 339 339 338 337 336 334 332 332 330 328 327 324 319 316 315 311 312 314 317 319 335 336 328 225 191 260 241 198 153 139 129 132 134 132 152 163 193 205 204 220 242 251 230 223 244 216 197 221 253 265 255 236 243 246 263 260 259 267 261 266 204 193 97 144 280 281 295 213 330 291 80 132 134 132 131 130 133 138 143 152 151 155
345 343 343 343 340 339 338 336 335 333 333 332 331 330 328 326 323 322 320 315 312 311 311 313 317 323 325 297 311 322 263 231 237 146 134 140 152 143 155 153 162 170 196 221 232 243 249 247 243 217 220 226 252 262 239 243 266 252 253 231 234 245 260 272 278 291 284 200 164 153 206 245 265 50 287 281 103 140 137 134 141 141 140 147 152 155 159 169
343 342 341 340 339 337 336 333 331 330 330 329 329 326 324 320 317 317 316 314 310 310 310 310 311 329 317 280 286 267 259 288 105 140 156 159 152 161 195 153 160 167 198 219 231 239 240 247 240 202 248 274 274 245 263 234 253 258 252 248 247 254 253 249 259 266 263 189 129 154 185 223 260 123 276 295 276 136 138 145 144 138 141 148 155 164 169 172
343 342 341 340 337 336 333 331 329 328 327 326 324 323 319 315 312 311 312 312 309 306 309 306 308 315 296 271 258 246 266 302 187 149 168 161 155 172 198 177 166 180 208 223 230 233 243 253 251 260 217 233 253 261 249 248 265 266 286 283 247 244 253 259 266 270 311 260 146 163 265 219 243 166 223 266 265 138 146 149 140 137 140 155 162 167 173 166
341 340 340 338 336 334 332 330 328 326 324 323 321 318 316 311 309 308 309 309 305 300 301 300 302 286 265 259 230 232 253 298 309 217 197 158 169 197 197 196 170 191 189 222 236 239 240 247 255 256 249 155 238 266 273 270 277 282 277 277 281 270 262 243 250 272 273 259 173 178 232 249 230 240 188 235 254 183 150 146 146 148 149 157 165 164 166 167
341 339 338 338 335 334 331 329 327 325 322 321 319 315 312 309 306 306 306 305 298 291 292 299 309 261 284 297 233 237 258 275 282 270 225 191 181 196 200 213 196 194 199 216 238 243 239 242 257 280 271 272 282 250 310 294 255 270 273 267 278 300 278 247 256 270 272 209 196 143 236 240 244 235 215 211 233 233 157 149 153 152 150 157 167 169 161 152
340 338 336 337 335 332 331 329 325 324 321 319 316 313 308 305 301 298 301 298 290 278 277 280 282 282 265 244 272 252 250 249 254 264 253 198 187 194 208 214 214 209 209 221 241 261 281 250 243 278 295 280 288 343 316 320 320 264 267 264 246 287 259 278 229 230 256 174 202 151 210 252 219 242 233 224 201 237 171 157 153 157 153 152 164 162 164 156
339 337 336 335 333 332 330 328 326 324 321 319 316 312 307 299 294 293 294 293 276 259 265 282 226 270 217 263 254 259 246 251 263 261 265 218 187 210 204 217 224 216 216 222 248 264 264 286 269 227 256 301 305 281 291 291 273 275 287 277 281 222 273 268 262 246 241 213 196 167 221 223 220 224 228 220 207 211 205 167 159 158 152 156 160 163 156 151
338 337 335 334 332 331 328 328 326 324 322 319 317 311 303 293 285 283 283 277 276 283 274 239 216 217 301 289 270 310 282 184 229 240 231 201 190 225 200 206 223 233 234 263 257 273 282 314 254 208 252 257 261 270 295 302 303 255 208 250 259 229 237 256 234 246 235 240 193 198 220 199 255 257 238 222 213 206 206 167 159 159 155 158 155 163 142 129
337 336 334 332 331 329 328 326 325 323 323 320 318 309 297 284 278 261 252 275 295 217 223 228 146 175 288 235 341 316 245 223 202 213 242 185 227 215 218 197 213 223 221 254 237 235 272 270 213 271 243 239 200 220 251 268 273 279 209 219 217 238 231 243 249 227 232 219 219 197 213 221 217 229 246 223 218 210 198 170 160 154 157 156 157 150 143 136
336 335 333 331 329 328 326 325 324 324 324 322 319 303 296 287 255 82 280 250 226 219 218 254 283 266 265 254 280 243 227 218 184 209 211 194 224 229 236 204 181 212 213 218 239 244 183 247 235 218 205 221 246 229 187 222 213 233 242 221 241 238 242 247 249 215 228 201 217 198 200 222 244 248 263 246 204 212 194 179 142 151 152 157 160 155 133 111
335 334 332 331 328 326 325 323 323 325 326 323 310 296 278 312 116 193 248 163 156 60 353 190 166 137 231 198 219 253 254 225 173 192 195 201 194 241 234 240 191 170 218 178 246 200 174 258 216 240 243 222 219 222 212 235 237 243 236 206 215 236 249 239 242 238 218 183 210 190 191 207 227 240 257 274 280 293 234 179 133 152 152 156 148 124 93 78
334 332 331 329 327 324 323 320 321 324 330 328 340 332 345 359 37 68 251 226 227 214 249 215 194 228 261 276 283 276 270 105 161 191 187 186 182 210 246 226 188 188 197 182 222 198 143 200 217 214 223 228 224 220 234 248 252 259 274 289 286 267 264 263 251 234 216 190 197 191 184 195 218 227 243 248 269 275 188 161 141 147 149 151 137 82 79 92
332 332 331 328 326 323 320 319 317 320 324 325 317 321 297 309 347 281 210 221 217 231 236 239 194 213 236 265 276 285 284 203 234 190 202 154 204 174 221 208 185 206 223 201 200 214 184 202 231 223 218 230 241 222 226 244 260 269 281 285 290 295 287 281 275 248 218 156 183 183 166 191 205 214 238 227 195 214 59 124 146 134 155 143 96 90 96 104
333 331 330 328 324 323 320 315 314 312 313 299 277 265 270 256 226 276 320 298 258 219 229 240 249 244 239 244 258 267 272 263 199 233 218 154 187 190 174 198 183 220 201 235 251 188 200 221 230 226 229 228 237 239 237 235 250 265 254 257 301 284 291 297 280 265 174 107 160 190 175 200 214 210 242 205 182 180 173 155 169 140 138 95 99 112 115 109
332 330 329 327 325 322 320 313 309 309 296 211 218 214 243 252 264 255 267 277 280 269 249 242 236 238 245 246 254 249 258 256 209 207 193 169 161 201 163 181 206 220 204 200 217 186 233 239 226 217 233 236 245 244 209 182 158 197 324 331 263 270 293 329 323 19 41 97 116 106 89 302 256 253 253 239 185 204 156 127 71 78 98 116 117 113 115 117
332 329 327 327 325 323 319 315 310 304 202 211 230 227 245 272 291 299 299 274 296 294 250 246 237 237 234 225 214 234 240 236 242 188 185 167 206 178 229 186 203 213 222 197 214 211 215 229 209 219 236 238 242 243 214 200 268 262 201 250 279 286 279 3 316 335 346 13 84 65 30 342 327 311 316 281 242 148 130 94 80 91 100 111 118 121 128 139
330 327 326 325 327 324 321 315 312 251 321 201 235 250 256 259 267 286 311 308 261 257 260 247 222 234 235 200 208 209 209 249 226 221 178 169 186 161 213 210 215 213 223 206 208 228 247 246 202 205 223 235 246 250 219 153 285 310 261 229 245 263 282 307 307 326 357 53 292 111 25 298 279 277 261 257 88 119 106 84 98 101 107 113 123 134 129 109
328 326 325 324 326 330 317 302 283 1 315 285 257 307 277 240 243 251 84 289 287 274 251 239 134 236 187 210 188 212 204 226 206 216 196 179 176 205 166 235 186 211 211 221 211 209 233 239 229 201 208 220 226 203 206 144 239 265 254 230 255 264 274 273 288 321 356 163 292 100 144 262 307 258 261 240 130 108 72 94 98 104 112 116 124 133 128 119
327 326 323 323 326 334 350 334 355 325 321 299 347 322 328 11 355 18 56 279 293 228 208 91 161 318 183 168 191 169 210 226 168 204 223 165 189 184 222 215 194 241 215 212 204 230 209 240 239 226 197 193 151 141 232 155 186 246 238 265 272 274 254 245 263 240 235 197 290 118 127 167 306 290 253 173 119 110 101 97 103 104 119 126 130 130 126 118
326 323 322 320 319 323 264 298 318 315 256 272 313 314 320 2 348 21 94 344 256 260 163 290 266 27 290 170 183 183 210 118 177 194 217 161 187 172 216 216 220 206 224 228 204 238 197 218 235 199 214 224 191 181 212 189 203 226 232 227 255 264 270 253 229 255 255 92 292 259 152 96 248 267 278 169 143 144 124 123 120 126 127 132 130 131 122 131
324 321 318 319 315 302 264 233 263 266 256 312 313 310 348 332 17 94 150 161 280 332 336 176 327 195 223 182 179 171 203 223 234 166 182 162 186 167 192 232 257 272 252 223 221 263 228 196 185 195 173 228 209 230 204 193 201 243 240 260 264 269 267 217 203 236 44 95 266 273 128 173 282 282 280 222 134 170 134 115 122 134 137 131 126 120 121 127
320 318 317 319 320 306 47 182 230 244 280 292 298 302 342 12 18 49 307 269 205 276 165 90 250 177 222 162 195 159 230 213 255 162 163 159 193 214 256 209 229 250 266 265 247 244 259 200 183 193 190 189 181 222 232 214 213 201 211 234 265 276 274 242 179 124 141 154 241 216 255 156 263 279 275 281 228 167 104 99 101 106 103 104 112 125 126 131
317 312 312 313 290 295 321 265 245 239 254 267 262 309 318 356 155 165 223 261 322 255 286 149 175 154 187 199 181 180 220 241 247 191 172 144 173 199 218 281 271 271 278 300 271 239 250 255 209 230 80 179 181 244 231 241 213 205 195 196 233 300 305 334 288 211 206 264 236 180 237 147 188 292 336 290 321 133 134 130 128 124 127 130 120 102 96 98
312 309 300 299 259 268 246 235 321 349 327 326 336 349 345 13 277 186 228 37 253 246 192 184 201 182 189 193 223 172 200 220 247 211 181 164 166 186 191 210 173 239 279 263 267 229 230 247 172 232 105 335 173 240 276 255 223 204 163 146 134 270 43 309 75 226 214 190 249 209 179 56 63 205 276 40 48 68 99 129 134 136 141 135 116 101 100 96
313 304 301 282 251 225 234 246 296 296 309 312 347 0 38 136 246 197 270 307 253 30 2 323 181 213 198 188 209 214 179 220 216 242 187 169 160 191 188 206 201 161 201 255 264 289 277 243 251 197 175 189 222 214 255 266 284 141 156 156 159 181 157 248 264 190 271 289 246 205 95 146 205 328 351 61 54 76 120 134 139 137 135 126 112 108 107 97
311 309 304 238 212 210 228 238 247 262 267 326 15 353 17 225 245 200 230 238 268 306 328 322 322 274 234 223 194 205 188 206 213 214 182 155 181 188 201 205 228 215 205 277 220 192 305 270 250 212 223 154 208 206 194 205 186 228 207 156 169 162 156 209 179 190 203 211 274 297 106 268 132 253 69 84 71 60 69 101 110 106 115 112 107 102 92 93
312 303 273 257 226 233 229 230 250 258 269 306 257 169 178 230 283 273 257 266 262 287 283 301 292 292 221 246 211 210 229 193 211 238 178 160 185 201 187 198 214 231 168 221 257 278 229 208 227 213 221 172 206 198 233 271 342 263 240 219 230 227 141 140 192 180 210 2 358 353 124 206 183 234 100 87 80 71 76 85 100 103 101 106 104 105 112 114
312 297 189 241 183 223 201 213 227 239 255 321 147 221 218 205 221 204 262 260 263 276 303 292 289 285 240 177 255 267 185 272 298 254 226 182 168 198 208 193 202 206 191 185 187 229 256 272 258 202 215 183 196 178 213 192 170 279 37 209 218 187 129 132 117 191 86 50 272 179 40 354 116 40 60 65 80 82 82 92 101 109 112 109 117 122 128 134
304 311 268 232 218 185 182 198 200 186 176 242 259 248 237 256 253 281 292 291 306 326 320 309 303 287 220 216 181 230 179 233 178 282 305 188 211 235 213 236 269 206 212 161 287 221 150 242 293 335 208 219 218 184 213 187 167 125 245 232 53 50 111 117 162 343 66 150 247 113 153 195 139 220 120 74 88 86 90 90 82 84 97 109 117 120 123 134
309 289 280 279 264 161 189 199 183 156 172 280 244 261 285 271 244 256 274 282 287 301 307 295 301 302 294 333 237 248 197 216 158 215 250 190 178 286 47 330 288 74 11 326 235 274 53 303 291 328 324 1 291 199 206 244 171 176 212 180 89 343 4 318 94 132 134 182 262 312 160 70 28 307 47 145 129 122 111 110 93 82 79 86 82 79 77 103
264 300 320 310 77 124 97 57 57 154 186 230 243 266 233 249 274 279 282 289 295 302 297 290 292 284 334 329 319 280 252 234 169 181 202 326 333 318 116 237 323 33 27 18 49 326 289 198 295 311 358 343 6 337 271 249 237 220 229 290 136 113 149 93 197 174 117 228 91 306 65 261 273 52 265 219 157 144 133 123 123 116 116 118 122 134 135 126
210 264 249 232 83 72 92 82 135 246 234 226 228 241 282 282 263 254 259 267 277 263 260 291 284 290 312 333 332 308 306 281 153 214 104 245 52 291 61 235 299 359 57 59 106 356 348 116 223 287 34 35 10 325 344 358 343 295 22 271 56 131 196 136 243 147 157 170 182 167 43 282 288 281 16 213 160 159 149 139 132 128 124 113 109 93 110 116
281 271 282 277 87 86 58 76 97 201 227 261 258 270 276 273 285 281 282 269 264 236 261 271 279 275 24 352 333 323 326 317 7 81 91 141 118 328 339 11 314 0 49 39 27 333 51 358 178 295 346 72 202 207 34 20 18 9 29 230 205 167 112 149 249 325 171 101 202 115 186 278 301 0 357 125 300 106 114 116 123 135 132 144 102 78 95 118
300 297 191 227 110 110 122 44 260 220 244 260 275 282 274 270 273 279 275 272 268 287 239 257 267 317 346 307 291 303 317 314 72 119 33 97 310 130 234 309 235 97 95 92 161 255 150 226 11 295 222 196 222 333 60 57 51 69 54 11 4 343 105 117 157 271 9 310 118 132 117 280 257 46 15 326 86 15 96 118 128 134 135 121 92 80 71 92
191 249 145 158 160 168 194 299 317 353 289 290 306 287 289 286 280 299 310 310 300 272 290 303 323 275 250 340 298 311 314 311 103 125 126 96 187 216 231 151 347 60 82 5 57 293 15 82 3 284 278 298 357 355 58 51 41 42 25 18 20 3 273 160 168 177 136 341 36 325 73 232 330 80 92 320 24 104 75 21 51 69 79 77 71 64 66 63
308 317 55 87 160 78 76 17 333 301 295 289 293 306 308 293 290 282 285 300 287 356 352 328 331 354 352 345 308 275 317 352 78 111 119 139 200 264 218 152 99 46 87 218 131 254 49 303 104 298 346 341 347 0 7 18 59 65 44 20 18 24 25 10 72 78 98 213 178 135 183 187 283 344 158 110 347 33 36 38 37 28 22 35 35 25 17 17
291 283 160 46 354 79 96 170 248 291 315 338 344 335 344 309 292 288 274 299 332 341 15 339 315 355 335 329 306 291 283 290 304 72 130 124 179 239 276 191 119 130 195 153 146 149 108 269 68 214 180 107 197 285 276 315 355 47 25 31 31 23 15 33 70 348 107 258 82 103 87 238 307 341 13 52 71 55 53 64 61 65 61 59 64 64 63 49
295 13 307 52 359 57 105 198 122 213 322 347 352 318 339 330 328 333 321 299 337 357 345 327 330 4 316 324 334 339 341 339 300 166 119 345 93 204 148 167 143 150 152 105 65 96 82 141 185 205 171 188 197 174 196 150 61 70 22 40 32 19 19 67 101 84 132 161 75 78 139 137 115 104 53 50 52 60 57 55 63 75 77 73 77 75 75 79
300 41 350 349 322 44 351 14 348 352 296 236 72 329 346 349 343 344 333 302 22 5 344 344 344 336 316 335 313 334 346 338 4 36 24 15 297 353 53 359 139 125 131 86 94 84 58 1 274 228 215 168 146 127 159 107 103 93 77 59 53 34 17 51 65 219 204 81 42 13 140 118 123 93 75 54 43 53 52 54 58 59 64 71 58 48 48 65
221 201 131 188 116 303 7 337 351 94 319 215 195 247 36 11 6 25 308 333 26 23 21 355 5 353 359 30 7 353 1 12 39 19 15 13 348 360 32 55 27 8 2 127 127 110 134 186 269 97 314 334 97 114 95 74 88 109 101 87 75 51 33 40 12 343 99 135 165 181 111 100 102 87 85 73 61 52 56 50 51 63 65 67 66 64 52 38
87 312 42 358 84 292 131 261 318 41 48 26 289 343 64 48 21 9 301 324 14 25 32 21 351 6 17 27 32 31 15 22 354 351 26 357 27 336 21 19 29 11 344 38 20 21 174 164 34 26 326 338 103 128 103 107 108 80 84 88 95 84 63 43 37 27 69 77 94 99 80 68 79 69 74 84 84 76 65 55 54 60 62 64 62 54 50 45
16 357 329 324 246 156 157 96 30 22 26 358 17 360 10 26 27 340 335 2 355 37 11 37 15 9 348 27 28 34 357 15 345 348 326 7 331 343 139 147 278 359 47 60 115 359 18 311 281 4 60 342 321 304 135 122 118 114 100 97 94 90 80 54 43 27 30 61 66 92 98 91 70 106 96 85 79 77 67 56 52 58 60 64 63 57 50 45
332 4 318 342 330 224 135 91 78 53 30 354 29 3 19 11 12 352 28 15 30 17 15 26 21 2 358 28 19 5 352 337 325 321 316 332 316 308 55 283 144 248 41 61 36 274 39 320 1 19 77 249 289 338 74 61 64 71 45 62 103 97 78 45 71 21 49 110 110 89 70 83 83 69 83 82 76 71 75 76 66 65 64 62 61 61 56 47
356 329 8 334 286 252 206 132 110 86 17 25 353 32 2 14 360 11 4 360 13 14 0 4 12 7 23 23 8 327 318 313 300 296 291 297 288 295 283 251 171 148 168 99 228 81 69 14 32 329 62 14 41 11 74 70 49 30 6 329 79 85 113 114 93 57 27 101 90 84 117 121 99 93 83 66 76 85 85 82 83 73 67 69 67 62 59 48